Weather History for Stevensville, MD

Change the Weather History Date:

Wednesday, January 23, 2013

  Actual Average (KESN) Record (KESN)
Temperature  
Mean Temperature 22 °F -  
Max Temperature 26 °F 46 °F 69 °F (1974)
Min Temperature 17 °F 29 °F 8 °F (2014)
Degree Days  
Heating Degree Days 44    
Moisture  
Dew Point 1 °F    
Average Humidity 40    
Maximum Humidity 53    
Minimum Humidity 31    
Precipitation  
Precipitation 0.00 in - - ()
Sea Level Pressure  
Sea Level Pressure 30.27 in    
Wind  
Wind Speed 12 mph (WNW)    
Max Wind Speed 18 mph    
Max Gust Speed 26 mph    
Visibility 10 miles    
Events      
Averages and records for this station are not official NWS values.
T = Trace of Precipitation, MM = Missing Value Source: NWS Daily Summary

Daily Weather History Graph

Daily Weather History Graph

Search for Another Location

Airport:

Trip Planner

Search our weather history database for the weather conditions in past years. The results will help you decide how hot, cold, wet, or windy it might be!

Date:

Astronomy

Jan. 23, 2013 Rise Set
Actual Time 7:18 AM EST 5:16 PM EST
Civil Twilight 6:49 AM EST 5:45 PM EST
Nautical Twilight 6:17 AM EST 6:17 PM EST
Astronomical Twilight 5:45 AM EST 6:49 PM EST
Moon 2:25 PM EST (1/23) 4:27 AM EST (1/23)
Length of Visible Light 10h 55m
Length of Day
9h 58m
Waxing Gibbous, 89% of the Moon is Illuminated
Jan 23
Waxing Gibbous
Jan 26
Full
Feb 3
Last Quarter
Feb 10
New
Feb 17
First Quarter

Hourly Weather History & Observations

Time (EST) Temp. Windchill Dew Point Humidity Pressure Visibility Wind Dir Wind Speed Gust Speed Precip Events Conditions
12:11 AM 19.4 °F 5.5 °F -0.4 °F 42% 30.30 in 10.0 mi NW 15.0 mph 20.7 mph N/A   Clear
12:32 AM 19.4 °F 5.5 °F 1.4 °F 46% 30.30 in 10.0 mi NW 15.0 mph 19.6 mph N/A   Clear
12:54 AM 19.4 °F 7.2 °F 1.4 °F 46% 30.30 in 10.0 mi NW 11.5 mph 20.7 mph N/A   Clear
1:15 AM 19.4 °F 5.5 °F 1.4 °F 46% 30.30 in 10.0 mi WNW 15.0 mph 18.4 mph N/A   Clear
1:36 AM 19.4 °F 5.0 °F 1.4 °F 46% 30.30 in 10.0 mi WNW 16.1 mph 20.7 mph N/A   Clear
1:58 AM 19.4 °F 7.9 °F 1.4 °F 46% 30.31 in 10.0 mi WNW 10.4 mph 18.4 mph N/A   Clear
2:19 AM 19.4 °F 5.5 °F 1.4 °F 46% 30.31 in 10.0 mi WNW 15.0 mph - N/A   Clear
2:40 AM 19.4 °F 7.2 °F 1.4 °F 46% 30.32 in 10.0 mi WNW 11.5 mph - N/A   Clear
3:02 AM 19.4 °F 5.5 °F -0.4 °F 42% 30.32 in 10.0 mi WNW 15.0 mph 18.4 mph N/A   Clear
3:23 AM 19.4 °F 4.5 °F 1.4 °F 46% 30.32 in 10.0 mi WNW 17.3 mph - N/A   Clear
3:44 AM 19.4 °F 6.6 °F 1.4 °F 46% 30.31 in 10.0 mi NW 12.7 mph 19.6 mph N/A   Clear
4:06 AM 19.4 °F 5.5 °F -0.4 °F 42% 30.31 in 10.0 mi WNW 15.0 mph 23.0 mph N/A   Clear
4:27 AM 17.6 °F 3.7 °F -0.4 °F 45% 30.31 in 10.0 mi WNW 13.8 mph 23.0 mph N/A   Clear
4:48 AM 17.6 °F 3.7 °F 1.4 °F 49% 30.32 in 10.0 mi WNW 13.8 mph - N/A   Clear
5:10 AM 17.6 °F 4.3 °F 1.4 °F 49% 30.32 in 10.0 mi WNW 12.7 mph 16.1 mph N/A   Clear
5:31 AM 17.6 °F 4.3 °F 1.4 °F 49% 30.32 in 10.0 mi WNW 12.7 mph 17.3 mph N/A   Clear
5:52 AM 17.6 °F 5.0 °F 1.4 °F 49% 30.33 in 10.0 mi WNW 11.5 mph 16.1 mph N/A   Clear
6:14 AM 17.6 °F 3.7 °F 1.4 °F 49% 30.33 in 10.0 mi WNW 13.8 mph - N/A   Clear
6:35 AM 17.6 °F 4.3 °F 3.2 °F 53% 30.33 in 10.0 mi WNW 12.7 mph 17.3 mph N/A   Clear
6:56 AM 17.6 °F 4.3 °F 3.2 °F 53% 30.33 in 10.0 mi WNW 12.7 mph 18.4 mph N/A   Clear
7:39 AM 17.6 °F 5.0 °F 3.2 °F 53% 30.34 in 10.0 mi WNW 11.5 mph - N/A   Clear
8:00 AM 17.6 °F 3.7 °F 3.2 °F 53% 30.35 in 10.0 mi WNW 13.8 mph 17.3 mph N/A   Clear
8:22 AM 19.4 °F 6.6 °F 1.4 °F 46% 30.35 in 10.0 mi WNW 12.7 mph 18.4 mph N/A   Clear
8:43 AM 19.4 °F 5.0 °F 1.4 °F 46% 30.35 in 10.0 mi WNW 16.1 mph 21.9 mph N/A   Clear
9:04 AM 19.4 °F 5.5 °F 1.4 °F 46% 30.35 in 10.0 mi WNW 15.0 mph 19.6 mph N/A   Clear
9:26 AM 21.2 °F 6.4 °F 1.4 °F 42% 30.36 in 10.0 mi WNW 18.4 mph 21.9 mph N/A   Clear
10:08 AM 21.2 °F 7.8 °F -0.4 °F 39% 30.36 in 10.0 mi WNW 15.0 mph 21.9 mph N/A   Clear
10:29 AM 21.2 °F 6.4 °F -0.4 °F 39% 30.35 in 10.0 mi WNW 18.4 mph 26.5 mph N/A   Clear
10:51 AM 23.0 °F 10.1 °F -0.4 °F 36% 30.35 in 10.0 mi WNW 15.0 mph 23.0 mph N/A   Clear
11:12 AM 23.0 °F 10.1 °F -0.4 °F 36% 30.33 in 10.0 mi WNW 15.0 mph 20.7 mph N/A   Clear
11:33 AM 23.0 °F 9.6 °F -0.4 °F 36% 30.32 in 10.0 mi WNW 16.1 mph 24.2 mph N/A   Clear
11:55 AM 23.0 °F 10.6 °F -0.4 °F 36% 30.31 in 10.0 mi West 13.8 mph 20.7 mph N/A   Clear
12:16 PM 23.0 °F 11.7 °F -0.4 °F 36% 30.29 in 10.0 mi WNW 11.5 mph 18.4 mph N/A   Clear
12:37 PM 24.8 °F 15.3 °F -0.4 °F 34% 30.27 in 10.0 mi West 9.2 mph 17.3 mph N/A   Clear
12:58 PM 24.8 °F 14.6 °F -0.4 °F 34% 30.26 in 10.0 mi West 10.4 mph 18.4 mph N/A   Clear
1:20 PM 26.6 °F 15.7 °F -0.4 °F 31% 30.25 in 10.0 mi WNW 12.7 mph 18.4 mph N/A   Clear
1:41 PM 26.6 °F 16.2 °F -0.4 °F 31% 30.25 in 10.0 mi WNW 11.5 mph - N/A   Clear
2:02 PM 24.8 °F 13.4 °F -0.4 °F 34% 30.24 in 10.0 mi WNW 12.7 mph 18.4 mph N/A   Clear
2:23 PM 26.6 °F 15.2 °F 1.4 °F 34% 30.24 in 10.0 mi WNW 13.8 mph 19.6 mph N/A   Clear
2:45 PM 26.6 °F 16.8 °F 1.4 °F 34% 30.24 in 10.0 mi WNW 10.4 mph - N/A   Clear
3:06 PM 26.6 °F 18.2 °F -0.4 °F 31% 30.24 in 10.0 mi WNW 8.1 mph - N/A   Clear
3:48 PM 26.6 °F 17.5 °F 1.4 °F 34% 30.23 in 10.0 mi West 9.2 mph - N/A   Clear
4:10 PM 26.6 °F 19.1 °F 1.4 °F 34% 30.23 in 10.0 mi West 6.9 mph - N/A   Clear
4:31 PM 26.6 °F 20.0 °F -0.4 °F 31% 30.22 in 10.0 mi West 5.8 mph - N/A   Clear
5:13 PM 24.8 °F 19.1 °F -0.4 °F 34% 30.23 in 10.0 mi West 4.6 mph - N/A   Clear
5:35 PM 26.6 °F 22.6 °F -0.4 °F 31% 30.22 in 10.0 mi West 3.5 mph - N/A   Scattered Clouds
5:56 PM 26.6 °F - 1.4 °F 34% 30.22 in 10.0 mi Calm Calm - N/A   Clear
6:17 PM 26.6 °F 22.6 °F 1.4 °F 34% 30.22 in 10.0 mi West 3.5 mph - N/A   Clear
6:38 PM 26.6 °F 21.2 °F 1.4 °F 34% 30.22 in 10.0 mi WNW 4.6 mph - N/A   Clear
7:00 PM 26.6 °F 21.2 °F 1.4 °F 34% 30.22 in 10.0 mi WNW 4.6 mph - N/A   Clear
7:21 PM 26.6 °F 20.0 °F -0.4 °F 31% 30.21 in 10.0 mi WNW 5.8 mph - N/A   Clear
7:42 PM 26.6 °F 22.6 °F -0.4 °F 31% 30.20 in 10.0 mi NW 3.5 mph - N/A   Clear
8:03 PM 26.6 °F - -0.4 °F 31% 30.20 in 10.0 mi Calm Calm - N/A   Clear
8:25 PM 26.6 °F 22.6 °F 1.4 °F 34% 30.20 in 10.0 mi NW 3.5 mph - N/A   Clear
8:46 PM 26.6 °F 21.2 °F -0.4 °F 31% 30.19 in 10.0 mi NW 4.6 mph - N/A   Scattered Clouds
9:07 PM 26.6 °F 19.1 °F 1.4 °F 34% 30.20 in 10.0 mi NNW 6.9 mph - N/A   Clear
9:29 PM 26.6 °F 21.2 °F 1.4 °F 34% 30.19 in 10.0 mi NW 4.6 mph - N/A   Clear
9:50 PM 26.6 °F 22.6 °F 1.4 °F 34% 30.19 in 10.0 mi NNW 3.5 mph - N/A   Clear
10:11 PM 26.6 °F 18.2 °F 1.4 °F 34% 30.20 in 10.0 mi North 8.1 mph - N/A   Clear
10:54 PM 24.8 °F 17.9 °F 6.8 °F 46% 30.19 in 10.0 mi East 5.8 mph - N/A   Mostly Cloudy
11:15 PM 24.8 °F 16.9 °F 5.0 °F 43% 30.19 in 10.0 mi East 6.9 mph - N/A   Scattered Clouds
11:36 PM 23.0 °F 15.8 °F 5.0 °F 46% 30.18 in 10.0 mi ENE 5.8 mph - N/A   Clear
11:58 PM 23.0 °F 15.8 °F 5.0 °F 46% 30.18 in 10.0 mi ENE 5.8 mph - N/A   Clear